Weather in Sursk

Russia / Penza Oblast     53°04′33″N   45°41′27″E
temp.,
°C
wind,
m/s
gust,
m/s
humid.,
%
clouds,
%
prec.,
mm/h
press.,
hPa
HPBL,
m
23 october, sat
sat2300:00+10wsw614765 0.0 1009459
03:00+8wsw512780 0.0 1010337
06:00+6sw410887 0.0 1010216
09:00+10sw6136857 0.0 1011721
12:00+12wsw8154221 0.0 10121727
15:00+12wsw6113896 0.0 10121276
18:00+8wsw41078100 0.9 1012614
21:00+8sse2380100 1.4 1011141
24 october, sun
sun2400:00+7nw2880100 0.9 1012308
03:00+4w38915 0.9 1013191
06:00+3wsw49874 0.0 1014227
09:00+5w59745 0.0 1015536
12:00+7w68565 0.0 10151182
15:00+7w685364 0.0 10151462
18:00+6wsw4856100 0.0 1015565
21:00+4wsw488698 0.1 1016392
25 october, mon
mon2500:00+3w5987100 0.3 1016584
03:00+2wnw4898100 0.9 1016521
06:00+1nw6118964 0.4 1018655
09:00+1nnw81176100 0.4 1021924
12:00+1nnw7970100 0.0 10231065
15:00+1nnw696196 0.1 10251137
18:00−1nnw4969100 0.0 1028252
21:00−1nw25737 0.0 1029101
26 october, tue
tue2600:00−2wnw228132 0.0 103023
03:00−3w34815 0.0 103061
06:00−3sw38795 0.0 1030142
09:00+1wsw6116039 0.0 1029438
12:00+5wsw710465 0.0 1027775
15:00+6wsw7114737 0.0 1026825
18:00+3wsw5135799 0.0 1027431
21:00+2wsw5136133 0.0 1027344
27 october, wed
wed2700:00+1wsw5136499 0.0 1027307
03:000wsw412676 0.0 1026268
06:000sw5126769 0.0 1026269
09:00+3wsw6145317 0.0 1025434
12:00+7wsw7123792 0.0 1024689
15:00+8sw71236100 0.0 1022778
18:00+5sw6144298 0.0 1022456
21:00+4sw61542100 0.0 1020498